sat.trackr.live / text

‹ back to catalog

KUIPER-00226

NORAD 67785 · 2026-030X

PAYLOAD ACTIVE UNKNOWN

§ Identity

Operator
Country
US
Launch date
2026-02-12
Launch site
FRGUI
Launch vehicle
Mass (kg)
RCS (m²)

External: N2YO · Heavens-Above · Gunter

§ Orbital elements

Epoch: 2026-09-20T21:50:49.140672Z

Period
97.30 min
Inclination
51.9004°
Eccentricity
0.0001351
Mean motion
14.79922809 rev/d
Perigee alt
628.6 km
Apogee alt
630.5 km
Semi-major
7,007.7 km
B*
2.9931e-4
RAAN
42.3188°
Arg perigee
17.7227°
Mean anomaly
342.3783°
Rev number
3,447

§ Raw data

KUIPER-002261 67785U 26030X   26263.91029098  .00002061  00000+0  29931-3 0  99962 67785  51.9004  42.3188 0001351  17.7227 342.3783 14.79922809 34475

JSON: /api/v1/satellites/67785 · /tle

For live sub-satellite position, see the globe view (requires WebGL).

§ Visibility from observer

Set your observer location to see the next 7 days of passes ≥ 10°. The values pass through the URL so the page stays shareable.

No JS? Fill the form by hand. The geolocation button needs JavaScript.